Showing default

HG-02, 60327

Orbit data source: Space-Track

HG-02, 60327 is a payload satellite owned by CNSA (CN) in GEO that was launched on Thu, 01 Aug 2024 UTC via a CHANG ZHENG 3B launch vehicle from the Xichang Space Center, China (XSC). Payload-class satellites include a variety of spacecraft equipped with specific instruments for various scientific and technological missions. These include communications satellites like Starlink; space stations such as the ISS; scientific satellites like the Hubble; Earth observation satellites from companies like Planet Labs, Umbra, and HawkEye 360; GPS; miniature CubeSats for education and research; and military/defense satellites.

Not visible in the next 10 days
Identifier
60327, 2024-135A
Orbit
GEO
Country
Flag of CNCN / PRC
Related business
Manufacturer
CAST
Mission
Operational Civil Communications
Bus & Motor
DFH-4?, FY-25?
Mass
~4,000 kg wet, ~2,000 kg dry
Launch date (UTC)
2024-08-01 (2 years ago)
Launch vehicle
CHANG ZHENG 3B
Launch site
Xichang Space Center, China (XSC)
Object type
Payload
Rocket body
Debris
Shape & HBR
Box + 2 Pan, 10.0 m
Radar Cross Section
17.671 m², Large (>1 m²)

Expand to show TLE details & history
Last TLE update: 2 days ago

TLE from 2 days ago
0 HG-02
1 60327U 24135A   26032.16421940 -.00000182  00000-0  00000-0 0  9995
2 60327   0.0215  43.5697 0006415 281.2634  18.8140  1.00272730  6138
Epoch: 2026-02-01T03:56Z
TLE epoch observation values (Epoch: 2026-02-01T03:56:28.556Z)
Latitude
-0.04058°
Longitude
153.21148°
Altitude
35,760.14 km
Speed
3.077 km/s
True Right ascension
22h 54m 49s
True Declination
0° 02' 26"
Sunlit
Object was in daylight at epoch
Visualization orbit readout
Latitude
Unknown
Longitude
Unknown
Altitude
Unknown
Speed
Unknown
Apparent Right ascension
Unknown
Apparent Declination
Unknown
Sunlit
N/A
Visualization observer readout
Local Sidereal Time
12:18:37
Azimuth
Unknown
Elevation
Unknown
Doppler factor
Unknown
Orbital elements
Apogee altitude
35,814.45 km
Perigee altitude
35,760.351 km
Semi-major axis
42,165.537 km
Eccentricity
0.00064
Inclination
0.0215°
RAAN
43.5697°
Arg. of periapsis
281.2634°
True anomaly
18.83772°
Mean anomaly
18.814°
Eccentric anomaly
18.82586°
Mean motion
0.25067 °/min
Orbital period
1,436.14 mins
BSTAR
0
Loading maneuver chart data...
Computing Atmospheric mass density...
Loading historical data...
Loading historical data...
Loading historical data...
Loading historical data...
Loading historical data...
Loading historical data...
Loading historical data...
Other satellites on launch #135 in the year 2024 (2024-08-01 UTC)

Documentation

Showing up to 5 results
|